loading
|

DELTA 1 DEB (YO), 227

Orbit data source: Space-Track

DELTA 1 DEB (YO), 227 is space debris in LEO originally from a launch on Thu, 08 Feb 1962 UTC launched from the Air Force Eastern Test Range (AFETR). Debris objects in space refer to the collection of defunct objects orbiting the Earth. Examples of debris include non-operational satellites, rocket bodies, and fragments generated from explosions, collisions, or faulty payload assembly.

Loading next visibility...
Loading greatness...
DELTA 1 DEB (YO) details
Identifier
227, 1962-002B
Orbit
LEO
Last TLE update4 days ago
Origin
Flag of USGSFC (US)
ManufacturerRCA/East Windsor
Mission statusUnknown
MissionUnknown
Bus & MotorUnknown
Mass~1 kg wet, ~1 kg dry
Launch date (UTC)
1962-02-08 (63 years ago)
Launch vehicleUnknown
Launch site
Air Force Eastern Test Range (AFETR)
Object type
Payload
Rocket body
Debris
Radar Cross SectionSmall (<0.1 m²)

Expand to show TLE details & history

TLE from 4 days ago
0 DELTA 1 DEB (YO)
1 00227U 62002B   24247.68329981  .00001749  00000-0  55194-3 0  9994
2 00227  48.1495  35.4932 0129852 254.9550 103.6943 14.39621986250380
Epoch: 2024-09-03T16:23Z
Definitive object data (Epoch: 2024-09-03T16:23:57.103Z)
Latitude-0.00006°
Longitude166.20984°
Altitude783.156 km
Speed7.452 km/s
True Right ascension02h 21m 58s
True Declination0° 00' 00"
Sunlit
Object was in full shadow at TLE epoch
Predictive object data (real-time)
Latitude38.80451°
Longitude-166.14077°
Altitude838.461 km
Speed7.399 km/s
Apparent Right ascension01h 08m 32s
Apparent Declination3° 41' 28"
Sunlit
Object is in daylight
Predictive observer data (real-time)
Local Sidereal Time09:25:26
Azimuth296.394° NW
Elevation-22.902°
Doppler factor1
Orbital elements
Apogee853.488 km
Perigee668.087 km
Semi-major axis7,138.924 km
Eccentricity0.0129852
Inclination48.1495°
RAAN35.4932°
Arg. of periapsis254.955°
True anomaly105.13431°
Mean anomaly103.6943°
Eccentric anomaly104.41488°
Mean motion3.59827 °/min
BSTAR0.00055194
Period100.05 mins
No data available

DELTA 1 DEB (YO) Visibility forecast

Observer location: 39.9160978°, -105.1181434

DELTA 1 DEB (YO) is not visible in the next 10 days
Span
Click to sort rows by Start time (UTC) header in descending order
Start Az.
Max El. time (UTC)
Max El. Az.
Max El.
End time (UTC)
End Az.